Location: *
(49.0044°N, 9.5056°E)
Time: 20:36:19
(UTC+00:00)

Cosmos 1943 - Pass Details

Date: 22 September 2019
Orbit: 833 x 851 km, 71.0° (Epoch: 20 October)

Event Time Altitude Azimuth Distance (km) Brightness Sun altitude
Rises 20:14:34 0° 332° (NNW) 3,426 7.4 -27.5°
Reaches altitude 10° 20:17:03 10° 335° (NNW) 2,485 6.4 -27.8°
Enters shadow 20:22:21 69° 25° (NNE) 907 3.3 -28.5°
